20050110,000019,520597,32.620943,-119.453066,12.3,15.087,32.877,40.662,151.05,0.0,2.124,14.840,14.807, NaN,24.317,   NaN,15.39,1015.95,100.00,15.67,344.3,347.7,9.3,8.5,210.2,214.0,8.6,7.8,NaN, NaN,17.0,218.9,211.1,1105315220,1105315220,1,1.3,000020,000020,231.6,32.620981,-119.452913,0.11,NaN,NaN,15.091, NaN,NaN,NaN, NaN, NaN
20050110,000049,520627,32.620773,-119.453196,12.3,15.085,32.868,40.649,154.20,0.0,2.105,14.839,14.806, NaN,24.310,   NaN,15.40,1015.96,100.00,15.68,339.2,340.9,9.5,8.8,208.9,210.9,8.8,8.1,NaN, NaN,16.5,178.5,196.6,1105315250,1105315250,1,2.0,000050,000050,228.2,32.620820,-119.453051,0.23,NaN,NaN,15.089, NaN,NaN,NaN, NaN, NaN
20050110,000119,520658,32.620613,-119.453303,12.3,15.088,32.881,40.666,154.41,0.0,2.086,14.839,14.807, NaN,24.319,   NaN,15.41,1015.92,100.00,15.69,342.0,345.0,9.8,9.2,209.3,212.5,9.1,8.5,NaN, NaN,16.9,175.2,176.5,1105315280,1105315280,1,1.7,000079,000080,222.7,32.620656,-119.453160,0.09,NaN,NaN,15.092, NaN,NaN,NaN, NaN, NaN
20050110,000149,520688,32.620440,-119.453378,12.3,15.088,32.872,40.656,152.09,0.0,2.143,14.840,14.807, NaN,24.313,   NaN,15.41,1015.93,100.00,15.69,344.7,349.4,10.0,9.3,208.8,213.5,9.4,8.6,NaN, NaN,14.5,195.7,216.5,1105315310,1105315310,1,1.1,000110,000110,220.1,32.620493,-119.453230,0.04,NaN,NaN,15.092, NaN,NaN,NaN, NaN, NaN
20050110,000220,520719,32.620266,-119.453421,12.4,15.087,32.866,40.649,148.59,0.0,2.105,14.840,14.808, NaN,24.309,   NaN,15.40,1015.97,100.00,15.69,349.2,353.5,10.0,9.4,210.9,215.4,9.5,8.8,NaN, NaN,16.0,162.6,175.3,1105315340,1105315340,1,1.4,000140,000140,216.4,32.620330,-119.453288,0.19,NaN,NaN,15.091, NaN,NaN,NaN, NaN, NaN
20050110,000250,520749,32.620125,-119.453438,12.3,15.087,32.865,40.648,144.62,0.0,2.143,14.841,14.808, NaN,24.308,   NaN,15.40,1015.95,100.00,15.68,357.3,0.8,10.0,10.2,213.7,217.4,9.4,9.6,NaN, NaN,16.0,134.7,147.9,1105315371,1105315371,1,1.7,000170,000171,206.4,32.620195,-119.453308,-0.16,NaN,NaN,15.091, NaN,NaN,NaN, NaN, NaN
20050110,000319,520777,32.619978,-119.453371,12.3,15.087,32.853,40.635,141.55,0.0,2.086,14.841,14.809, NaN,24.299,   NaN,15.42,1016.03,100.00,15.68,7.8,10.3,10.0,10.7,216.9,219.3,9.6,10.3,NaN, NaN,16.2,184.5,165.1,1105315400,1105315400,1,1.1,000199,000200,198.1,32.620065,-119.453273,-0.17,NaN,NaN,15.091, NaN,NaN,NaN, NaN, NaN
20050110,000350,520808,32.619796,-119.453271,12.3,15.089,32.850,40.633,139.27,0.0,2.124,14.841,14.809, NaN,24.295,   NaN,15.40,1016.00,100.00,15.68,19.9,20.2,9.8,10.1,221.2,221.4,9.5,9.8,NaN, NaN,16.6,168.9,152.0,1105315431,1105315431,1,1.8,000231,000231,192.6,32.619896,-119.453190,-0.57,NaN,NaN,15.093, NaN,NaN,NaN, NaN, NaN
20050110,000420,520838,32.619620,-119.453128,12.4,15.089,32.850,40.633,139.29,0.0,2.086,14.839,14.810, NaN,24.296,   NaN,15.39,1016.06,100.00,15.67,24.8,23.9,9.9,9.9,222.6,221.5,9.6,9.6,NaN, NaN,13.5,147.1,147.0,1105315461,1105315460,1,1.9,000260,000260,195.6,32.619721,-119.453056,-0.46,NaN,NaN,15.093, NaN,NaN,NaN, NaN, NaN
20050110,000450,520868,32.619405,-119.453036,12.3,15.089,32.842,40.624,141.35,0.0,2.124,14.841,14.811, NaN,24.289,   NaN,15.39,1016.12,100.00,15.67,22.0,21.8,10.2,10.3,222.3,221.9,9.8,10.0,NaN, NaN,14.6,193.4,164.3,1105315490,1105315490,1,1.4,000290,000290,200.9,32.619501,-119.452946,-0.49,NaN,NaN,15.093, NaN,NaN,NaN, NaN, NaN
20050110,000520,520899,32.619161,-119.452971,12.3,15.088,32.841,40.622,145.59,0.0,2.086,14.840,14.810, NaN,24.289,   NaN,15.38,1016.12,100.00,15.65,15.5,16.7,9.8,10.4,221.2,222.2,9.3,9.9,NaN, NaN,12.9,145.7,154.2,1105315521,1105315521,1,1.8,000320,000321,203.8,32.619251,-119.452871,-0.52,NaN,NaN,15.092, NaN,NaN,NaN, NaN, NaN
20050110,000550,520929,32.618946,-119.452903,12.3,15.089,32.843,40.624,150.44,0.0,2.086,14.841,14.811, NaN,24.290,   NaN,15.37,1016.10,100.00,15.63,12.8,14.7,10.0,10.4,220.4,222.2,9.5,9.9,NaN, NaN,13.4,225.5,146.2,1105315551,1105315551,1,1.0,000350,000351,203.4,32.619045,-119.452811,-0.37,NaN,NaN,15.093, NaN,NaN,NaN, NaN, NaN
20050110,000620,520959,32.618818,-119.452818,12.3,15.088,32.836,40.616,155.00,0.0,2.086,14.838,14.811, NaN,24.285,   NaN,15.38,1016.14,100.00,15.66,13.3,15.2,10.6,10.7,219.1,221.0,10.2,10.3,NaN, NaN,17.7,307.3,252.6,1105315581,1105315581,1,0.5,000381,000381,200.6,32.618920,-119.452733,-0.25,NaN,NaN,15.092, NaN,NaN,NaN, NaN, NaN
20050110,000650,520988,32.618691,-119.452685,12.3,15.086,32.837,40.616,159.10,0.0,2.086,14.842,14.811, NaN,24.286,   NaN,15.37,1016.13,100.00,15.62,15.0,16.5,10.1,10.3,218.2,219.7,10.0,10.2,NaN, NaN,14.2,125.6,129.6,1105315611,1105315611,1,1.4,000410,000411,195.2,32.618788,-119.452606,-0.65,NaN,NaN,15.090, NaN,NaN,NaN, NaN, NaN
20050110,000721,521020,32.618545,-119.452551,12.4,15.088,32.846,40.627,162.87,0.0,2.086,14.841,14.810, NaN,24.293,   NaN,15.36,1016.17,100.00,15.65,18.1,18.2,10.0,10.3,218.2,218.1,9.9,10.2,NaN, NaN,15.3,126.1,124.7,1105315641,1105315641,1,1.7,000441,000441,195.1,32.618641,-119.452483,-0.55,NaN,NaN,15.092, NaN,NaN,NaN, NaN, NaN
20050110,000750,521048,32.618368,-119.452421,12.4,15.089,32.854,40.637,166.89,0.0,2.086,14.838,14.810, NaN,24.299,   NaN,15.36,1016.27,100.00,15.62,15.8,16.4,10.0,10.3,216.5,217.0,9.8,10.1,NaN, NaN,14.2,135.7,142.4,1105315671,1105315671,1,2.2,000471,000471,203.0,32.618463,-119.452346,-0.36,NaN,NaN,15.093, NaN,NaN,NaN, NaN, NaN
20050110,000820,521079,32.618155,-119.452406,12.3,15.086,32.859,40.640,170.55,0.0,2.086,14.841,14.810, NaN,24.303,   NaN,15.34,1016.25,100.00,15.59,7.1,11.7,10.7,10.7,211.6,216.5,10.2,10.3,NaN, NaN,15.2,145.4,165.2,1105315701,1105315701,1,2.4,000500,000501,204.6,32.618228,-119.452308,-0.32,NaN,NaN,15.090, NaN,NaN,NaN, NaN, NaN
20050110,000850,521109,32.617870,-119.452405,12.3,15.085,32.866,40.647,177.39,0.0,2.086,14.841,14.810, NaN,24.309,   NaN,15.35,1016.26,100.00,15.60,4.0,7.8,11.4,11.6,210.8,214.5,10.8,10.9,NaN, NaN,15.2,167.1,173.1,1105315731,1105315731,1,1.7,000531,000531,204.0,32.617963,-119.452316,-0.16,NaN,NaN,15.089, NaN,NaN,NaN, NaN, NaN
20050110,000921,521140,32.617608,-119.452375,12.3,15.086,32.868,40.650,190.08,0.0,2.086,14.842,14.811, NaN,24.310,   NaN,15.35,1016.29,100.00,15.60,5.4,7.7,11.5,11.7,212.2,214.1,10.8,10.9,NaN, NaN,16.3,145.1,149.0,1105315761,1105315761,1,2.6,000561,000561,201.7,32.617705,-119.452296,-0.35,NaN,NaN,15.090, NaN,NaN,NaN, NaN, NaN
20050110,000950,521168,32.617368,-119.452366,12.3,15.089,32.867,40.652,205.01,0.0,2.105,14.842,14.811, NaN,24.309,   NaN,15.34,1016.27,100.00,15.57,5.7,8.6,11.3,11.7,210.7,213.5,10.5,11.0,NaN, NaN,15.4,190.8,180.9,1105315791,1105315791,1,1.9,000591,000591,201.6,32.617463,-119.452286,-0.12,NaN,NaN,15.093, NaN,NaN,NaN, NaN, NaN
20050110,001020,521198,32.617128,-119.452328,12.4,15.091,32.862,40.648,220.47,0.0,2.086,14.843,14.811, NaN,24.304,   NaN,15.33,1016.20,100.00,15.57,8.1,11.1,11.4,11.8,211.6,214.7,10.7,11.1,NaN, NaN,15.6,170.8,187.3,1105315821,1105315821,1,1.1,000621,000621,199.7,32.617233,-119.452261,-0.12,NaN,NaN,15.095, NaN,NaN,NaN, NaN, NaN
20050110,001050,521229,32.616893,-119.452268,12.3,15.090,32.847,40.631,234.09,0.0,2.105,14.843,14.811, NaN,24.293,   NaN,15.32,1016.15,100.00,15.56,11.0,13.7,11.3,11.6,214.3,217.1,10.7,11.0,NaN, NaN,14.8,127.3,164.1,1105315851,1105315851,1,1.4,000650,000651,199.2,32.616993,-119.452198,-0.59,NaN,NaN,15.094, NaN,NaN,NaN, NaN, NaN
20050110,001120,521259,32.616646,-119.452201,12.4,15.089,32.835,40.616,243.72,0.0,2.086,14.843,14.811, NaN,24.284,   NaN,15.31,1016.02,100.00,15.54,13.4,14.9,10.1,10.8,217.0,218.3,9.5,10.2,NaN, NaN,16.2,150.0,181.3,1105315881,1105315881,1,1.7,000681,000681,202.4,32.616743,-119.452123,-0.71,NaN,NaN,15.093, NaN,NaN,NaN, NaN, NaN
20050110,001150,521289,32.616403,-119.452111,12.5,15.089,32.836,40.617,246.91,0.0,2.105,14.843,14.811, NaN,24.284,   NaN,15.28,1016.01,100.00,15.51,15.4,16.0,9.7,10.4,220.9,221.1,9.1,9.8,NaN, NaN,15.3,179.0,174.0,1105315911,1105315911,1,1.7,000710,000711,202.6,32.616501,-119.452045,-0.14,NaN,NaN,15.093, NaN,NaN,NaN, NaN, NaN
20050110,001220,521318,32.616206,-119.452081,12.4,15.089,32.843,40.625,244.80,0.0,2.086,14.843,14.811, NaN,24.290,   NaN,15.25,1015.91,100.00,15.49,19.2,19.2,10.0,10.3,225.1,224.9,9.5,9.8,NaN, NaN,16.9,170.7,199.3,1105315941,1105315940,1,1.6,000740,000740,202.2,32.616306,-119.452000,-0.31,NaN,NaN,15.093, NaN,NaN,NaN, NaN, NaN
20050110,001250,521348,32.616030,-119.452020,12.3,15.089,32.850,40.633,237.34,0.0,2.067,14.844,14.811, NaN,24.296,   NaN,15.24,1015.89,100.00,15.48,20.8,22.1,9.8,10.3,226.4,227.4,9.4,9.9,NaN, NaN,15.6,128.3,191.8,1105315971,1105315970,1,0.9,000770,000770,199.2,32.616135,-119.451946,-0.44,NaN,NaN,15.093, NaN,NaN,NaN, NaN, NaN
20050110,001320,521378,32.615813,-119.451933,12.3,15.089,32.856,40.640,225.72,0.0,2.086,14.843,14.811, NaN,24.300,   NaN,15.22,1015.83,100.00,15.46,24.7,25.5,9.8,10.1,228.2,228.8,9.5,9.8,NaN, NaN,16.0,142.4,168.9,1105316001,1105316001,1,1.7,000801,000801,196.9,32.615918,-119.451865,-0.72,NaN,NaN,15.093, NaN,NaN,NaN, NaN, NaN
20050110,001350,521409,32.615593,-119.451830,12.4,15.086,32.871,40.653,211.50,0.0,2.048,14.843,14.811, NaN,24.313,   NaN,15.22,1015.86,100.00,15.46,29.8,28.0,9.3,9.2,232.0,230.2,9.0,8.8,NaN, NaN,15.5,159.7,173.4,1105316031,1105316031,1,1.2,000830,000831,197.0,32.615695,-119.451766,-0.55,NaN,NaN,15.090, NaN,NaN,NaN, NaN, NaN
20050110,001421,521439,32.615350,-119.451726,12.4,15.086,32.894,40.678,193.39,0.0,2.067,14.842,14.814, NaN,24.330,   NaN,15.20,1015.85,100.00,15.42,31.8,29.7,8.9,8.7,234.8,232.7,8.6,8.4,NaN, NaN,15.5,200.4,160.6,1105316061,1105316061,1,1.9,000861,000861,197.6,32.615453,-119.451661,-0.72,NaN,NaN,15.090, NaN,NaN,NaN, NaN, NaN
20050110,001450,521469,32.615101,-119.451625,12.4,15.087,32.909,40.697,173.23,0.0,2.067,14.842,14.811, NaN,24.342,   NaN,15.18,1015.92,100.00,15.40,30.1,29.3,9.2,9.2,234.8,233.8,8.9,8.9,NaN, NaN,16.6,151.5,153.9,1105316091,1105316091,1,2.4,000891,000891,202.1,32.615203,-119.451556,-0.30,NaN,NaN,15.091, NaN,NaN,NaN, NaN, NaN
20050110,001520,521498,32.614856,-119.451548,12.4,15.088,32.914,40.703,152.02,0.0,2.048,14.842,14.811, NaN,24.345,   NaN,15.18,1015.96,100.00,15.41,27.6,26.5,9.5,9.9,234.6,233.2,9.2,9.5,NaN, NaN,14.9,142.9,151.8,1105316121,1105316121,1,2.6,000920,000921,203.6,32.614951,-119.451468,-0.56,NaN,NaN,15.092, NaN,NaN,NaN, NaN, NaN
20050110,001550,521528,32.614628,-119.451500,12.3,15.089,32.911,40.700,133.61,0.0,2.067,14.842,14.813, NaN,24.343,   NaN,15.18,1016.02,100.00,15.39,26.7,25.3,10.0,10.5,234.1,232.3,9.6,10.1,NaN, NaN,15.0,222.5,211.8,1105316151,1105316151,1,1.6,000950,000951,201.4,32.614725,-119.451431,-0.27,NaN,NaN,15.093, NaN,NaN,NaN, NaN, NaN
20050110,001621,521559,32.614380,-119.451398,12.3,15.091,32.905,40.696,119.09,0.0,2.086,14.842,14.811, NaN,24.338,   NaN,15.18,1016.05,100.00,15.36,27.0,25.4,10.6,11.2,232.7,230.6,10.3,10.9,NaN, NaN,15.9,160.8,191.1,1105316182,1105316181,1,1.2,000981,000981,198.6,32.614488,-119.451338,-0.53,NaN,NaN,15.095, NaN,NaN,NaN, NaN, NaN
20050110,001650,521589,32.614151,-119.451288,12.4,15.087,32.907,40.695,111.38,0.0,2.086,14.842,14.811, NaN,24.340,   NaN,15.19,1016.05,100.00,15.38,27.9,26.3,11.0,11.5,231.8,229.9,10.7,11.2,NaN, NaN,15.8,150.5,154.5,1105316211,1105316211,1,1.7,001010,001011,198.4,32.614251,-119.451226,-0.73,NaN,NaN,15.091, NaN,NaN,NaN, NaN, NaN
20050110,001720,521619,32.613921,-119.451198,12.4,15.089,32.914,40.703,107.11,0.0,2.086,14.843,14.811, NaN,24.345,   NaN,15.19,1016.11,100.00,15.36,27.8,27.8,10.6,11.2,231.4,231.0,10.3,11.0,NaN, NaN,15.9,177.5,162.3,1105316241,1105316240,1,1.6,001040,001040,199.9,32.614028,-119.451135,-0.50,NaN,NaN,15.093, NaN,NaN,NaN, NaN, NaN
20050110,001750,521648,32.613681,-119.451115,12.3,15.089,32.923,40.713,105.48,0.0,2.105,14.843,14.812, NaN,24.352,   NaN,15.19,1016.12,100.00,15.35,26.7,26.3,10.1,10.8,231.6,230.7,9.8,10.5,NaN, NaN,16.8,184.8,170.1,1105316271,1105316271,1,2.1,001071,001071,200.7,32.613783,-119.451045,-0.57,NaN,NaN,15.093, NaN,NaN,NaN, NaN, NaN
20050110,001820,521678,32.613421,-119.451021,12.4,15.086,32.922,40.710,102.22,0.0,2.086,14.842,14.811, NaN,24.352,   NaN,15.20,1016.09,100.00,15.35,25.7,24.8,10.6,11.5,230.7,229.3,10.2,11.1,NaN, NaN,16.1,153.5,150.4,1105316301,1105316301,1,2.6,001100,001101,198.9,32.613525,-119.450961,-0.39,NaN,NaN,15.090, NaN,NaN,NaN, NaN, NaN
20050110,001851,521710,32.613105,-119.450980,12.3,15.087,32.933,40.723,96.11,0.0,2.105,14.841,14.810, NaN,24.360,   NaN,15.22,1016.13,100.00,15.37,25.3,24.6,11.1,11.9,230.2,229.1,10.5,11.4,NaN, NaN,15.4,172.2,173.9,1105316331,1105316331,1,2.5,001131,001131,201.1,32.613208,-119.450906,-0.63,NaN,NaN,15.091, NaN,NaN,NaN, NaN, NaN
20050110,001921,521739,32.612806,-119.450906,12.4,15.087,32.944,40.735,85.90,0.0,2.086,14.841,14.810, NaN,24.368,   NaN,15.22,1016.14,100.00,15.36,24.8,24.4,11.0,11.7,230.1,229.4,10.3,11.0,NaN, NaN,16.8,202.9,172.7,1105316362,1105316362,1,2.3,001161,001162,199.7,32.612908,-119.450850,-0.19,NaN,NaN,15.091, NaN,NaN,NaN, NaN, NaN
20050110,001950,521769,32.612550,-119.450871,12.4,15.087,32.946,40.737,73.21,0.0,2.086,14.841,14.810, NaN,24.370,   NaN,15.23,1016.22,100.00,15.38,24.6,24.4,11.1,11.9,229.1,228.5,10.5,11.4,NaN, NaN,16.5,162.1,178.5,1105316391,1105316391,1,1.5,001191,001191,201.6,32.612656,-119.450795,-0.36,NaN,NaN,15.091, NaN,NaN,NaN, NaN, NaN
20050110,002021,521799,32.612345,-119.450758,12.3,15.089,32.949,40.742,61.50,0.0,2.105,14.842,14.812, NaN,24.372,   NaN,15.24,1016.27,100.00,15.36,22.9,22.8,11.1,11.8,227.5,227.1,10.7,11.5,NaN, NaN,16.2,128.4,138.4,1105316422,1105316422,1,1.0,001221,001222,197.1,32.612465,-119.450701,-0.51,NaN,NaN,15.093, NaN,NaN,NaN, NaN, NaN
20050110,002051,521830,32.612208,-119.450625,12.2,15.090,32.947,40.741,53.13,0.0,2.086,14.842,14.811, NaN,24.370,   NaN,15.24,1016.17,100.00,15.37,27.3,27.6,11.1,11.4,226.9,227.0,10.9,11.3,NaN, NaN,17.2,113.5,157.4,1105316452,1105316451,1,1.6,001251,001251,184.1,32.612340,-119.450593,-0.92,NaN,NaN,15.094, NaN,NaN,NaN, NaN, NaN
20050110,002121,521860,32.612113,-119.450398,12.3,15.090,32.928,40.721,50.29,0.0,2.086,14.843,14.811, NaN,24.356,   NaN,15.24,1016.20,100.00,15.38,40.7,41.6,10.5,9.5,228.6,229.9,10.6,9.6,NaN, NaN,18.0,156.8,129.1,1105316482,1105316482,1,1.5,001282,001282,172.1,32.612235,-119.450396,-0.95,NaN,NaN,15.094, NaN,NaN,NaN, NaN, NaN
20050110,002151,521889,32.611981,-119.450156,12.4,15.093,32.912,40.705,50.17,0.0,2.086,14.844,14.811, NaN,24.342,   NaN,15.23,1016.24,100.00,15.40,49.6,52.2,9.0,7.5,229.2,232.6,9.3,7.8,NaN, NaN,17.2,110.3,115.8,1105316512,1105316512,1,1.2,001312,001312,174.7,32.612100,-119.450155,-1.01,NaN,NaN,15.097, NaN,NaN,NaN, NaN, NaN
20050110,002221,521919,32.611836,-119.449960,12.4,15.093,32.903,40.695,50.87,0.0,2.086,14.845,14.811, NaN,24.335,   NaN,15.21,1016.10,100.00,15.35,46.5,50.4,9.0,7.7,227.7,232.2,9.1,7.9,NaN, NaN,17.0,103.0,150.5,1105316542,1105316542,1,1.4,001342,001342,182.4,32.611945,-119.449915,-1.22,NaN,NaN,15.097, NaN,NaN,NaN, NaN, NaN
20050110,002251,521949,32.611720,-119.449735,12.5,15.091,32.888,40.677,50.46,0.0,2.086,14.845,14.811, NaN,24.324,   NaN,15.21,1016.16,100.00,15.36,39.7,40.9,9.6,8.7,227.7,229.2,9.7,8.9,NaN, NaN,17.6,263.3,144.2,1105316572,1105316572,1,1.5,001372,001372,189.6,32.611826,-119.449688,-0.59,NaN,NaN,15.095, NaN,NaN,NaN, NaN, NaN
20050110,002321,521980,32.611596,-119.449566,12.3,15.089,32.882,40.668,48.44,0.0,2.086,14.845,14.812, NaN,24.320,   NaN,15.20,1016.11,100.00,15.37,36.0,34.5,8.9,8.9,229.1,227.4,9.1,9.0,NaN, NaN,16.8,94.2,111.1,1105316602,1105316602,1,1.6,001402,001402,190.4,32.611698,-119.449505,-0.96,NaN,NaN,15.093, NaN,NaN,NaN, NaN, NaN
20050110,002351,522010,32.611416,-119.449418,12.4,15.090,32.879,40.666,44.94,0.0,2.105,14.844,14.811, NaN,24.318,   NaN,15.19,1016.10,100.00,15.35,30.7,29.4,8.6,9.1,229.5,228.0,8.7,9.2,NaN, NaN,17.4,142.3,131.4,1105316632,1105316632,1,2.3,001432,001432,205.9,32.611511,-119.449330,-0.51,NaN,NaN,15.094, NaN,NaN,NaN, NaN, NaN
20050110,002421,522040,32.611248,-119.449361,12.3,15.091,32.887,40.676,40.69,0.0,2.067,14.844,14.811, NaN,24.324,   NaN,15.18,1016.16,100.00,15.36,19.1,20.2,9.1,9.6,228.6,229.5,8.9,9.4,NaN, NaN,18.9,132.3,162.7,1105316662,1105316662,1,2.3,001462,001462,217.2,32.611318,-119.449263,-0.39,NaN,NaN,15.095, NaN,NaN,NaN, NaN, NaN
20050110,002451,522069,32.611005,-119.449396,12.3,15.089,32.888,40.675,37.06,0.0,2.105,14.843,14.811, NaN,24.325,   NaN,15.17,1016.12,100.00,15.35,9.4,12.3,9.3,9.5,226.9,229.6,8.7,9.0,NaN, NaN,17.3,225.6,199.8,1105316692,1105316692,1,2.2,001492,001492,210.8,32.611086,-119.449288,-0.44,NaN,NaN,15.093, NaN,NaN,NaN, NaN, NaN
20050110,002521,522099,32.610763,-119.449393,12.3,15.091,32.885,40.673,34.50,0.0,2.086,14.843,14.811, NaN,24.322,   NaN,15.16,1016.16,100.00,15.33,11.7,13.1,9.1,9.5,227.5,228.7,8.4,8.9,NaN, NaN,17.9,190.0,165.6,1105316722,1105316721,1,2.0,001521,001521,209.2,32.610846,-119.449293,-0.53,NaN,NaN,15.095, NaN,NaN,NaN, NaN, NaN
20050110,002551,522129,32.610556,-119.449376,12.2,15.091,32.878,40.666,32.51,0.0,2.105,14.844,14.812, NaN,24.317,   NaN,15.14,1016.18,100.00,15.33,15.9,16.4,9.1,9.7,228.7,228.9,8.6,9.2,NaN, NaN,17.8,247.6,230.5,1105316752,1105316752,1,1.4,001552,001552,206.6,32.610646,-119.449275,-0.48,NaN,NaN,15.095, NaN,NaN,NaN, NaN, NaN
20050110,002621,522160,32.610341,-119.449315,12.4,15.088,32.876,40.661,30.47,0.0,2.067,14.843,14.812, NaN,24.316,   NaN,15.13,1016.23,100.00,15.33,17.8,18.7,9.2,9.6,230.0,230.7,8.8,9.3,NaN, NaN,17.8,228.9,157.8,1105316782,1105316782,1,2.0,001582,001582,206.6,32.610431,-119.449230,-0.29,NaN,NaN,15.092, NaN,NaN,NaN, NaN, NaN
20050110,002651,522190,32.610120,-119.449306,12.3,15.084,32.879,40.661,29.24,0.0,2.048,14.842,14.810, NaN,24.319,   NaN,15.12,1016.28,100.00,15.32,19.9,20.9,9.1,9.7,230.6,231.4,8.7,9.3,NaN, NaN,17.9,159.0,177.1,1105316812,1105316812,1,2.0,001612,001612,202.7,32.610216,-119.449228,-0.25,NaN,NaN,15.088, NaN,NaN,NaN, NaN, NaN
20050110,002721,522220,32.609868,-119.449280,12.3,15.087,32.882,40.667,28.13,0.0,2.086,14.841,14.810, NaN,24.321,   NaN,15.11,1016.26,100.00,15.31,23.2,22.8,9.3,10.0,231.4,230.6,8.8,9.5,NaN, NaN,16.2,243.9,236.8,1105316842,1105316842,1,1.7,001641,001642,202.6,32.609971,-119.449210,-0.16,NaN,NaN,15.091, NaN,NaN,NaN, NaN, NaN
20050110,002752,522251,32.609605,-119.449230,12.3,15.088,32.887,40.673,27.39,0.0,2.067,14.841,14.810, NaN,24.324,   NaN,15.11,1016.24,100.00,15.31,23.9,23.2,9.7,10.2,231.9,230.8,9.2,9.7,NaN, NaN,17.3,163.1,149.2,1105316872,1105316872,1,1.8,001672,001672,205.6,32.609701,-119.449141,-0.68,NaN,NaN,15.092, NaN,NaN,NaN, NaN, NaN
20050110,002822,522281,32.609388,-119.449205,12.4,15.089,32.894,40.681,27.18,0.0,2.067,14.841,14.810, NaN,24.330,   NaN,15.11,1016.21,100.00,15.31,22.3,22.1,9.5,10.1,233.0,232.2,9.0,9.7,NaN, NaN,14.0,178.7,215.5,1105316903,1105316903,1,1.2,001702,001703,207.9,32.609466,-119.449083,-0.85,NaN,NaN,15.093, NaN,NaN,NaN, NaN, NaN
20050110,002851,522309,32.609216,-119.449108,12.3,15.087,32.891,40.676,26.83,0.0,2.067,14.841,14.811, NaN,24.327,   NaN,15.10,1016.19,100.00,15.32,20.4,20.2,8.9,9.7,234.5,233.8,8.7,9.5,NaN, NaN,14.4,127.9,150.8,1105316932,1105316932,1,1.6,001732,001732,215.6,32.609300,-119.448981,-0.41,NaN,NaN,15.091, NaN,NaN,NaN, NaN, NaN
20050110,002921,522340,32.609095,-119.449051,12.3,15.089,32.885,40.671,26.11,0.0,2.086,14.841,14.810, NaN,24.322,   NaN,15.09,1016.15,100.00,15.32,16.6,17.4,8.3,9.1,235.1,235.4,8.2,9.0,NaN, NaN,14.0,143.5,152.1,1105316962,1105316962,1,1.1,001762,001762,216.9,32.609175,-119.448915,-0.40,NaN,NaN,15.093, NaN,NaN,NaN, NaN, NaN
20050110,002951,522370,32.609015,-119.448926,12.4,15.088,32.881,40.666,25.84,0.0,2.067,14.841,14.810, NaN,24.319,   NaN,15.09,1016.09,100.00,15.32,17.1,18.4,8.0,8.6,236.3,237.3,8.1,8.8,NaN, NaN,15.5,120.7,142.6,1105316992,1105316992,1,1.1,001792,001792,211.9,32.609106,-119.448801,-0.07,NaN,NaN,15.092, NaN,NaN,NaN, NaN, NaN
20050110,003022,522401,32.608915,-119.448836,12.3,15.091,32.871,40.658,25.33,0.0,2.048,14.841,14.810, NaN,24.311,   NaN,15.09,1016.01,100.00,15.31,19.3,20.6,8.3,8.9,234.5,235.7,8.4,9.0,NaN, NaN,15.0,138.6,131.9,1105317023,1105317022,1,1.4,001822,001822,211.0,32.609003,-119.448711,-0.62,NaN,NaN,15.095, NaN,NaN,NaN, NaN, NaN
20050110,003052,522431,32.608728,-119.448790,12.4,15.086,32.877,40.661,24.62,0.0,2.086,14.841,14.810, NaN,24.317,   NaN,15.09,1015.94,100.00,15.32,17.3,18.1,8.4,9.2,232.9,233.5,8.3,9.0,NaN, NaN,14.5,191.2,192.2,1105317053,1105317053,1,1.3,001853,001853,215.1,32.608810,-119.448653,-0.58,NaN,NaN,15.090, NaN,NaN,NaN, NaN, NaN
20050110,003121,522459,32.608483,-119.448841,12.3,15.088,32.881,40.666,24.03,0.0,2.086,14.841,14.810, NaN,24.319,   NaN,15.09,1015.98,100.00,15.31,11.8,12.2,8.7,9.1,232.2,232.5,8.2,8.6,NaN, NaN,14.8,261.1,208.9,1105317082,1105317082,1,1.6,001882,001882,222.2,32.608548,-119.448695,-0.17,NaN,NaN,15.092, NaN,NaN,NaN, NaN, NaN
20050110,003152,522490,32.608235,-119.448931,12.3,15.086,32.884,40.668,23.08,0.0,2.067,14.841,14.810, NaN,24.322,   NaN,15.08,1015.96,100.00,15.34,6.5,8.7,8.9,9.0,230.2,232.4,8.1,8.2,NaN, NaN,16.0,181.2,182.6,1105317113,1105317112,1,2.2,001912,001912,216.2,32.608305,-119.448800,-0.12,NaN,NaN,15.090, NaN,NaN,NaN, NaN, NaN
20050110,003222,522520,32.608008,-119.448966,12.2,15.087,32.888,40.673,22.28,0.0,2.086,14.841,14.810, NaN,24.325,   NaN,15.08,1015.98,100.00,15.33,13.4,13.4,8.7,9.1,233.0,233.0,8.0,8.4,NaN, NaN,15.4,113.6,148.9,1105317143,1105317143,1,1.5,001943,001943,207.4,32.608096,-119.448851,-0.39,NaN,NaN,15.091, NaN,NaN,NaN, NaN, NaN
20050110,003252,522550,32.607861,-119.448921,12.2,15.086,32.887,40.672,21.37,0.0,2.067,14.841,14.808, NaN,24.325,   NaN,15.06,1015.99,100.00,15.32,28.2,25.6,8.2,8.3,237.4,234.6,7.8,7.9,NaN, NaN,15.0,213.6,230.4,1105317173,1105317173,1,0.6,001972,001973,190.5,32.607973,-119.448851,-0.34,NaN,NaN,15.090, NaN,NaN,NaN, NaN, NaN
20050110,003321,522579,32.607765,-119.448788,12.4,15.087,32.887,40.672,20.16,0.0,2.067,14.841,14.809, NaN,24.324,   NaN,15.06,1016.00,100.00,15.31,45.3,44.6,7.2,6.4,239.6,239.3,7.1,6.3,NaN, NaN,17.1,175.0,171.2,1105317202,1105317202,1,1.0,002002,002002,170.7,32.607890,-119.448775,-0.47,NaN,NaN,15.091, NaN,NaN,NaN, NaN, NaN
20050110,003352,522611,32.607531,-119.448561,12.4,15.086,32.887,40.672,18.90,0.0,2.048,14.841,14.808, NaN,24.325,   NaN,15.05,1015.91,100.00,15.32,58.7,60.9,6.9,4.9,239.3,244.1,7.0,5.1,NaN, NaN,16.4,138.5,159.1,1105317233,1105317233,1,2.3,002032,002033,166.2,32.607640,-119.448543,-0.98,NaN,NaN,15.090, NaN,NaN,NaN, NaN, NaN
20050110,003422,522641,32.607110,-119.448225,12.4,15.086,32.887,40.671,17.96,0.0,2.067,14.841,14.809, NaN,24.325,   NaN,15.05,1015.97,100.00,15.31,62.4,63.4,7.6,5.0,239.4,245.7,7.5,5.1,NaN, NaN,17.7,147.3,152.0,1105317263,1105317263,1,3.2,002063,002063,164.6,32.607233,-119.448250,-0.69,NaN,NaN,15.090, NaN,NaN,NaN, NaN, NaN
20050110,003452,522670,32.606573,-119.447873,12.5,15.087,32.888,40.673,16.94,0.0,2.029,14.841,14.808, NaN,24.325,   NaN,15.05,1015.90,100.00,15.32,60.3,63.8,8.0,5.7,239.5,249.3,7.7,5.6,NaN, NaN,19.4,148.3,146.2,1105317293,1105317293,1,5.2,002092,002093,165.3,32.606680,-119.447873,-0.74,NaN,NaN,15.091, NaN,NaN,NaN, NaN, NaN
20050110,003522,522700,32.605971,-119.447525,12.4,15.085,32.890,40.673,15.61,0.0,2.067,14.840,14.808, NaN,24.327,   NaN,15.05,1015.92,100.00,15.31,57.9,63.7,8.4,6.1,239.4,252.0,7.9,6.0,NaN, NaN,18.3,151.5,155.2,1105317323,1105317323,1,4.9,002122,002123,165.7,32.606068,-119.447521,-0.87,NaN,NaN,15.089, NaN,NaN,NaN, NaN, NaN
20050110,003553,522731,32.605380,-119.447193,12.4,15.086,32.885,40.669,15.09,0.0,2.067,14.840,14.808, NaN,24.323,   NaN,15.06,1015.96,100.00,15.32,58.0,61.1,8.5,6.2,239.9,249.5,7.9,5.9,NaN, NaN,18.1,135.7,148.8,1105317353,1105317353,1,4.2,002153,002153,166.1,32.605505,-119.447205,-0.51,NaN,NaN,15.090, NaN,NaN,NaN, NaN, NaN
20050110,003623,522761,32.604851,-119.446866,12.4,15.086,32.886,40.670,14.78,0.0,2.086,14.838,14.807, NaN,24.324,   NaN,15.05,1015.96,100.00,15.29,59.4,62.2,8.4,5.8,240.4,250.6,8.0,5.6,NaN, NaN,17.3,168.0,158.7,1105317383,1105317383,1,4.2,002183,002183,164.4,32.604973,-119.446880,-0.71,NaN,NaN,15.090, NaN,NaN,NaN, NaN, NaN